Regional Weather Roundup
Issued by NWS

Home | Current Version | Previous Version | Graphics & Text | Print | Product List | Glossary On
Versions: 1 2 3 4 5 6 7 8 9 10 11 12 13 14 15 16 17 18 19 20 21 22 23 24 25 26 27 28 29 30 31 32 33 34 35 36 37 38 39 40 41 42 43 44 45 46 47 48 49 50
000
ASUS45 KSLC 280110
RWRUT

UTAH REGIONAL WEATHER ROUNDUP
NATIONAL WEATHER SERVICE SALT LAKE CITY UT
700 PM MDT WED MAY 27 2015

UTZ001>011-023>025-280200-

NORTHERN UTAH

CITY           SKY/WX    TMP DP  RH WIND       PRES   REMARKS
BRIGHAM CITY   CLOUDY    66  44  46 CALM      30.04F
HILL AFB       CLOUDY    64  45  49 NW6       30.05R
LOGAN          MOSUNNY   63  50  62 N8        30.04R
OGDEN          CLOUDY    64  48  56 NW5       30.04R
PROVO AIRPORT  PTSUNNY   66  43  42 VRB6      30.05S
SALT LAKE CITY CLOUDY    68  48  48 N12       30.02R
VERNAL         LGT RAIN  56  46  69 SW13G23   30.09R
WENDOVER       CLOUDY    59  46  63 E9        30.05R
HEBER CITY     CLOUDY    63  37  39 SW13      30.07S
WEST JORDAN    PTSUNNY   64  48  55 N6        30.05R

$$

UTZ012>022-026-027-280200-

SOUTHERN/CENTRAL UTAH

CITY           SKY/WX    TMP DP  RH WIND       PRES   REMARKS
BLANDING       MOSUNNY   72  33  23 S10       30.12S
BRYCE CANYON   MOSUNNY   65  25  22 SW13G24   30.14F
CEDAR CITY     SUNNY     65  44  46 N12       30.04R
DELTA          CLOUDY    59  45  59 S7G21     30.09R
HANKSVILLE     PTSUNNY   75  34  22 N6        29.97S
MILFORD        PTSUNNY   61  43  51 NE14G23   30.05F
MOAB/CYNLANDS  MOSUNNY   73  40  30 NW12      29.97R
PRICE          CLOUDY    57  44  62 S12G25    30.11R
ST GEORGE      CLOUDY    88  28  11 W12       29.88S
KANAB          SUNNY     79  23  12 S13       30.02F

$$

REGIONAL REPORTS     COLORADO/ARIZONA

CITY           SKY/WX    TMP DP  RH WIND       PRES   REMARKS
CRAIG, CO      CLOUDY    63  43  48 CALM      30.10R
GRAND JUNCTION PTSUNNY   71  41  33 SE6       29.99S
RIFLE          PTSUNNY   68  47  46 E7        30.04R
MONTROSE       PTSUNNY   67  41  38 SE20G28   30.11S
CORTEZ         SUNNY     71  39  31 S8        30.07S
PAGE, AZ       MOSUNNY   83  34  17 N8        29.94S
GRAND CANYON   MOSUNNY   69  26  20 SW9       30.12S
KINGMAN        SUNNY     83  23  11 SW16      29.94S
FLAGSTAFF      MOSUNNY   65  28  24 SW12      30.16S

$$

REGIONAL REPORTS    NEVADA/IDAHO/WYOMING

CITY           SKY/WX    TMP DP  RH WIND       PRES   REMARKS
LAS VEGAS, NV  MOSUNNY   93  33  12 S14G23    29.77F
ELY            CLOUDY    53  45  74 S9        30.13S
ELKO           PTSUNNY   68  42  38 NE8       30.00S
POCATELLO, ID  PTSUNNY   60  49  66 E10       30.00F THUNDER
BURLEY         CLOUDY    62  47  57 SW5       29.96F
EVANSTON, WY   MOSUNNY   57  38  48 W14       30.14R
ROCK SPRINGS   PTSUNNY   51  44  77 SE8       30.12R
KEMMERER       PTSUNNY   54  36  50 W9        30.15R

$$


USA.gov is the U.S. government's official web portal to all federal, state and local government web resources and services.